Погода в Шадринске

Погода в Шадринске : погода сейчас, прогноз погоды и архив. Всё, что Вы хотите узнать о погоде в Шадринске!

Хотите узнать прогноз погоды в Шадринске? Тогда Вам сюда: Погода в Шадринске

Поиск расширенной информации на нашем сайте:

Полезная информация:

Другие новости

Новости СМИ2

Главная страница сайта

Новости сайта

03.07.2017

Напоминаем, что на нашем специализированном сайте Метеоцентр.Азия вы можете получить высокодетализированные автоматические прогнозы погоды по пунктам России, СНГ и мира в авиационном формате (включающие направление и скорость ветра, видимость, явления погоды, количество и форму облачности, нижнюю и верхнюю границу облачности).

Рекомендуем:

Погода в Шадринске - сегодня

Время (UTC), дата Ветер
(°,м/с) 
Видим.   Явления Облачность Т
(°С)
Тd
(°С)
f(%) Тe
(°С)
Pmin
(гПа)
dP
(гПа)
Po
(мм)
O2
(г/м3)
Тmin Tmax R s Состояние
почвы
09 15.09.19 220 (ЮЗ) 5{11}  10 км    3/3 600 м 
[Cu hum]
+25.5 +2.7 23 +26  1011.1  -1.6  751  276           
12 15.09.19 220 (ЮЗ) 5{12}  10 км    8/6 600 м кучево-дожд., верхняя 
[Cb cap|Ci sp]
+25.5 +1.8 21 +26  1009.7  -1.3  750  276           
15 15.09.19 200 (Ю) 2{10}  10 км    8/6 600 м кучево-дожд., верхняя 
[Cb cap|Ci sp]
+20 +3.6 34 +20  1009.3  -0.6  749  281    +26.1       
18 15.09.19 180 (Ю) 10 км    8/4 600 м средняя, верхняя 
[Sc|Ac trans|Ci sp]
+16 +4.9 48 +17  1009.3  -0.2  749  284           
21 15.09.19 350 (С) 10 км    8/4 600 м средняя, верхняя 
[Sc|Ac trans|Ci sp]
+14.1 +6.1 59 +15  1008.9  -0.5  749  286           
00 16.09.19 200 (Ю) 10 км    8/4 600 м средняя, верхняя 
[Sc|Ac trans|Ci sp]
+10.5 +6.5 76 +12  1009  0.1  749  289           
03 16.09.19 тихо ()   10 км    10/8 600 м кучево-дожд., верхняя 
[Cb cap|Ci sp]
+11.4 +8.3 81 +11  1007.6  -1.3  748  288  +10.3        сухая 
06 16.09.19 270 (З) 10 км  слаб. ливневой дождь  10/10 600 м кучево-дожд. 
[Cb cap]
+15.7 +8.1 61 +16  1006.6  -0.8  747  283           
09 16.09.19 290 (З) 10 км  {ливн. осадки}  10/10 600 м кучево-дожд. 
[Cb cap]
+14.7 +8.2 65 +15  1006.2  -0.4  747  284           
12 16.09.19 210 (ЮЗ) 10 км  слаб. ливневой дождь  10/10 600 м кучево-дожд. 
[Cb cap]
+9.8 +8 89 +11  1006.5  0.1  747  289           
15 16.09.19 200 (Ю) 10 км  {ливн. осадки}  6/4 600 м верхняя 
[Sc|Ci sp]
+8.1 +6.7 91 +8  1006.2  -0.4  747  291    +16.7     
18 16.09.19 тихо ()   10 км  {ливн. осадки}  4/0 верхняя 
[Ci sp]
+6.8 +5.6 92 +7  1005.7  -0.6  746  292           
21 16.09.19 240 (ЮЗ) 10 км    9/9 600 м кучево-дожд. 
[Cb cap]
+7.2 +5.5 89 +8  1004.7  -1  745  292           
00 17.09.19 200 (Ю) 10 км    10/10 600 м кучево-дожд. 
[Cb cap]
+8.6 +6.1 84 +7  1003.2  -1.3  744  290           
03 17.09.19 210 (ЮЗ) 10 км  слаб. ливневой дождь  10/10 300 м кучево-дожд. 
[Cb cap]
+9.1 +6.8 85 +8  1002.1  -1.1  744  289  +6.4      мокрая 
06 17.09.19 220 (ЮЗ) 5{10}  10 км  {ливн. осадки}  9/9 600 м кучево-дожд. 
[Cb cap]
+12.1 +7.2 72 +11  1002.1  0.1  744  286           
09 17.09.19 240 (ЮЗ) 5{11}  10 км    8/8 600 м кучево-дожд. 
[Cb cap]
+15.7 +6.5 54 +15  1002  -0.1  744  282           
12 17.09.19 250 (З) 4{15}  10 км  {ливн. осадки}  8/8 600 м кучево-дожд. 
[Cb cap]
+15.9 +5.2 49 +16  1003.4  1.4  745  283           
15 17.09.19 210 (ЮЗ) 10 км    6/4 600 м кучево-дожд., верхняя 
[Cb cap|Ci sp]
+11.2 +5.5 68 +12  1004  0.4  745  287    +16.4  0.3     
18 17.09.19 190 (Ю) 10 км    8/4 600 м кучево-дожд., верхняя 
[Cb cap|Ci sp]
+11 +5.5 69 +11  1004.2  0.2  745  288           
21 17.09.19 330 (СЗ) 10 км    8/6 600 м кучево-дожд., верхняя 
[Cb cap|Ci sp]
+10 +5.5 74 +11  1003.3  -0.8  745  288           
00 18.09.19 200 (Ю) 10 км    4/4 600 м кучево-дожд. 
[Cb cap]
+7.7 +4.8 82 +9  1003.2  -0.2  744  291           
03 18.09.19 тихо ()   10 км    9/8 600 м кучево-дожд., верхняя 
[Cb cap|Ci sp]
+10.5 +6.7 77 +11  1003.1  744  288  +7.6        влажная 
06 18.09.19 200 (Ю) 10 км  слаб. ливневой дождь  10/10 600 м кучево-дожд. 
[Cb cap]
+13 +9.2 78 +13  1002.9  744  285           
09 18.09.19 190 (Ю) 10 км  слаб. дождь{ливн. осадки}  10/10 300 м 
[Frnb|Ns]
+12.8 +10.6 86 +15  1002.9  744  284           
Время (UTC), дата Ветер
(°,м/с) 
Видим.   Явления Облачность Т
(°С)
Тd
(°С)
f(%) Тe
(°С)
Pmin
(гПа)
dP
(гПа)
Po
(мм)
O2
(г/м3)
Тmin Tmax R s Состояние
почвы

Для получения пояснительной информации подведите курсор к названию столбца.

ПОГОДА в Шадринске - архив

Всё, что Вы хотите узнать о погоде в Шадринске - удобно и подробно!

Выберите нужную дату (начиная с 1 января 2018* года) и нажмите кнопку "Найти".
Будут отображены архивные сводки погоды по пункту Шадринск, начиная с указанной даты.


Отображать данные в формате CSV (для использования в таблицах Excel)


Внимание! Наш архив погоды предназначен исключительно для личного некоммерческого использования в познавательных целях. Если Вам необходимы официальные справки о состоянии погоды (для производственных, юридических, коммерческих и т.п. целей), обращайтесь в органы Росгидромета.

*Примечание: данная дата относится к архиву по метеостанциям СССР (Россия, СНГ, Балтия).
Архив по метеостанциям Зарубежной Европы и Азии (кроме Китая) хранится 10 дней, по другим регионам земного шара (Китай, Африка, Америка, Австралия, Океания) - 1 день.

Шадринск - район местоположения метеостанции


Название, широта, долгота, высота метеостанции:
Шадринск 56.1°ш. 63.6°д. 89 м над ур. моря [Российская Федерация]

Дополнительная информация

В oтличие oт бoльшинства пoгoдных сайтoв мы публикуем пoдрoбную метеoинфoрмацию в детальнoм прoфессиoнальнoм фoрмате.

Характеристики температуры и влажнoсти вoздуха измеряются на высoте 2 м в тени вдали oт зданий и деревьев.
Скoрoсть ветра измеряется на высoте 10 м (на урoвне рoста челoвека скoрoсть ветра ниже в 1.5-2 раза). Если метеoстанция нахoдится в гoрoде или в лесу, тo скoрoсть ветра занижена на 2-4 м/с пo сравнению с oткрытым местoм. Скoрoсть ветра над акватoриями крупных рек и oзёр, а также на вершинах хoлмoв на 2-5 м/с выше, чем в oбычных услoвиях.
Атмoсфернoе давление в разных тoчках местнoсти мoжет значительнo oтличаться oт давления на метеoстанции, в зависимoсти oт услoвий рельефа (при пoдъёме на 10 м давление пoнижается примернo на 1 мм рт.ст.).